Regional Weather Roundup
Issued by NWS

Home | Current Version | Previous Version | Text Only | Print | Product List | Glossary On
Versions: 1 2 3 4 5 6 7 8 9 10 11 12 13 14 15 16 17 18 19 20 21 22 23 24 25 26 27 28 29 30 31 32 33 34 35 36 37 38 39 40 41 42 43 44 45 46 47 48 49 50
165
ASUS44 KJAN 261903
RWRMS

MISSISSIPPI HOURLY WEATHER ROUNDUP
NATIONAL WEATHER SERVICE JACKSON MS
200 PM CDT THU MAR 26 2015

NOTE: "FAIR: INDICATES FEW OR NO CLOUDS BELOW 12,000 FEET WITH NO
SIGNIFICANT WEATHER AND/OR OBSTRUCTIONS TO VISIBILITY.

MSZ001>002-007>008-010>013-018>021-025>028-034>036-262000-
NORTHWEST MISSISSIPPI

CITY           SKY/WX    TMP DP  RH WIND       PRES   REMARKS
CLARKSDALE     CLOUDY    52  50  93 NW18G26   29.97R
CLEVELAND      CLOUDY    54  52  95 N26G35    29.93R
GREENWOOD      CLOUDY    72  53  51 W7        29.86F
GREENVILLE     CLOUDY    57  51  80 N28G35    29.90R
OLIVE BRANCH   LGT RAIN  46  46 100 N18G28    29.98R FOG
OXFORD         CLOUDY    59  52  77 N12G24    29.91R
TUNICA         CLOUDY    48  45  87 N23G33    30.00R FOG
$$

MSZ003>006-009-014>017-022>024-029>033-037>039-262000-
NORTHEAST MISSISSIPPI

CITY           SKY/WX    TMP DP  RH WIND       PRES   REMARKS
COLUMBUS AFB   NOT AVBL
CORINTH        CLOUDY    57  52  82 NW15G22   29.88R
GOLDN TRIANGLE PTSUNNY   75  48  38 W5        29.83F
STARKVILLE     CLOUDY    73  48  40 NW5       29.84S
TUPELO         CLOUDY    72  52  49 NW7       29.83F
$$

MSZ040-058-262000-
CENTRAL MISSISSIPPI

CITY           SKY/WX    TMP DP  RH WIND       PRES   REMARKS
JACKSON INTL   CLOUDY    76  57  51 W8        29.84F
JACKSON HAWKNS CLOUDY    75  55  49 W6        29.84F
MERIDIAN KEY   CLOUDY    73  62  68 VRB7      29.83F
MERIDIAN NAS   PTSUNNY   73  61  65 W7        29.83F
RAYMOND        MOCLDY    75  70  83 W5        29.83F
VICKSBURG      LGT RAIN  67  63  87 NW5       29.86S FOG
$$

MSZ059>079-262000-
SOUTH MISSISSIPPI

CITY           SKY/WX    TMP DP  RH WIND       PRES   REMARKS
BROOKHAVEN     FAIR      75  64  69 S5        29.87F
HATTIESBURG    CLOUDY    74  65  73 SW13      29.87F
MCCOMB         CLOUDY    74  62  66 S7        29.85F
NATCHEZ        CLOUDY    70  63  78 W5        29.87S
PINE BELT      CLOUDY    73  63  68 S8        29.86F
$$

MSZ080>082-262000-
COASTAL MISSISSIPPI

CITY           SKY/WX    TMP DP  RH WIND       PRES   REMARKS
BAY ST LOUIS   CLOUDY    70  64  83 SW5       29.88F
BILOXI         CLOUDY    66  64  94 SE6       29.87F
PASCAGOULA     LGT RAIN  66  65  96 CALM      29.88F FOG
GULFPORT       CLOUDY    69  66  90 SE9       29.87F
$$



USA.gov is the U.S. government's official web portal to all federal, state and local government web resources and services.